Location: Krasnoyarskiy Pitomnik
(51.1333°N, 71.6167°E)
Time: 20:33:31
(UTC+00:00)

Explorer 7 - All Passes

Search period start: 12 April 2024 00:00
Search period end: 22 April 2024 00:00
Orbit: 469 x 629 km, 50.3° (Epoch: 11 April)

Date Brightness Start Highest point End Pass type
(mag) Time Alt. Az. Time Alt. Az. Time Alt. Az.
12 Apr - 09:25:26 10° SSW 09:29:26 30° SSE 09:33:22 10° E daylight
12 Apr - 11:04:24 10° WSW 11:08:56 69° SSE 11:13:18 10° E daylight
12 Apr - 12:44:16 10° W 12:48:45 78° S 12:53:01 10° ESE daylight
12 Apr - 14:24:15 10° W 14:28:21 40° SSW 14:32:13 10° SE daylight
12 Apr - 16:05:56 10° WSW 16:07:14 11° SW 16:08:31 10° SSW visible
13 Apr - 07:43:44 10° SE 07:44:30 10° SE 07:45:16 10° ESE daylight
13 Apr - 09:19:13 10° SW 09:23:26 36° SSE 09:27:33 10° E daylight
13 Apr - 10:58:26 10° WSW 11:03:01 75° S 11:07:25 10° E daylight
13 Apr - 12:38:21 10° W 12:42:50 74° S 12:47:06 10° ESE daylight
13 Apr - 14:18:23 10° W 14:22:20 33° SSW 14:26:06 10° SE daylight
14 Apr - 07:36:06 10° SSE 07:38:22 14° SE 07:40:37 10° ESE daylight
14 Apr - 09:13:04 10° SW 09:17:25 42° SSE 09:21:41 10° E daylight
14 Apr - 10:52:30 10° W 10:57:05 79° S 11:01:30 10° E daylight
14 Apr - 12:32:25 10° W 12:36:54 69° SSW 12:41:10 10° ESE daylight
14 Apr - 14:12:33 10° W 14:16:19 28° SW 14:19:54 10° SSE daylight
15 Apr - 07:29:17 10° S 07:32:14 17° SE 07:35:13 10° E daylight
15 Apr - 09:06:58 10° SW 09:11:26 49° SSE 09:15:47 10° E daylight
15 Apr - 10:46:33 10° W 10:51:09 81° S 10:55:35 10° E daylight
15 Apr - 12:26:29 10° W 12:30:56 62° SSW 12:35:11 10° ESE daylight
15 Apr - 14:06:45 10° W 14:10:15 23° SW 14:13:35 10° SSE daylight
16 Apr - 07:22:41 10° S 07:26:09 21° SE 07:29:35 10° E daylight
16 Apr - 09:00:55 10° WSW 09:05:26 56° SSE 09:09:53 10° E daylight
16 Apr - 10:40:37 10° W 10:45:13 82° S 10:49:39 10° E daylight
16 Apr - 12:20:33 10° W 12:24:58 55° SSW 12:29:10 10° ESE daylight
16 Apr - 14:01:02 10° W 14:04:09 19° SW 14:07:08 10° S daylight
17 Apr - 07:16:15 10° SSW 07:20:03 26° SE 07:23:50 10° E daylight
17 Apr - 08:54:52 10° WSW 08:59:27 63° SSE 09:03:56 10° E daylight
17 Apr - 10:34:40 10° W 10:39:16 81° S 10:43:42 10° E daylight
17 Apr - 12:14:36 10° W 12:18:58 48° SSW 12:23:06 10° SE daylight
17 Apr - 13:55:27 10° W 13:58:01 15° SW 14:00:31 10° S daylight
18 Apr - 07:09:55 10° SSW 07:13:58 31° SSE 07:18:00 10° E daylight
18 Apr - 08:48:52 10° WSW 08:53:28 70° SSE 08:57:59 10° E daylight
18 Apr - 10:28:42 10° W 10:33:19 79° S 10:37:45 10° ESE daylight
18 Apr - 12:08:41 10° W 12:12:55 41° SSW 12:16:59 10° SE daylight
18 Apr - 13:50:09 10° WSW 13:51:51 12° SW 13:53:31 10° SSW daylight
19 Apr - 05:28:03 10° SE 05:28:59 11° SE 05:29:56 10° ESE daylight
19 Apr - 07:03:39 10° SW 07:07:53 36° SSE 07:12:07 10° E daylight
19 Apr - 08:42:51 10° WSW 08:47:29 75° S 08:52:01 10° E daylight
19 Apr - 10:22:44 10° W 10:27:19 75° S 10:31:46 10° ESE daylight
19 Apr - 12:02:45 10° W 12:06:52 35° SSW 12:10:49 10° SE daylight
20 Apr - 05:20:29 10° SSE 05:22:48 14° SE 05:25:06 10° ESE daylight
20 Apr - 06:57:27 10° SW 07:01:49 43° SSE 07:06:11 10° E daylight
20 Apr - 08:36:51 10° W 08:41:29 79° S 08:46:03 10° E daylight
20 Apr - 10:16:45 10° W 10:21:20 69° SSW 10:25:45 10° ESE daylight
20 Apr - 11:56:51 10° W 12:00:46 29° SW 12:04:33 10° SSE daylight
21 Apr - 05:13:37 10° S 05:16:37 17° SE 05:19:37 10° E daylight
21 Apr - 06:51:19 10° SW 06:55:46 50° SSE 07:00:14 10° E daylight
21 Apr - 08:30:51 10° W 08:35:30 82° S 08:40:04 10° E daylight
21 Apr - 10:10:45 10° W 10:15:19 63° SSW 10:19:44 10° ESE daylight
21 Apr - 11:51:00 10° W 11:54:39 24° SW 11:58:10 10° SSE daylight
